N8WJW Weather Reports


Display with metric or nautical units.
time (UTC)temp
F
wind
direction
speed
MPH
gust
MPH
rain 1hr
in
rain 24hr
in
rain mn
in
humidity
%
barometer
mb
20260508024640 40 104 0.0 2.0 0.00 0.00 0.00 80 1014.0
20260508024138 40 95 0.0 2.0 0.00 0.00 0.00 79 1014.1
20260508023634 40 106 1.0 2.0 0.00 0.00 0.00 79 1014.1
20260508023132 40 79 0.0 2.0 0.00 0.00 0.00 78 1014.1
20260508022627 41 106 0.0 2.0 0.00 0.00 0.00 78 1014.0
20260508022125 41 74 0.0 2.0 0.00 0.00 0.00 78 1014.0
20260508021620 41 104 0.0 2.0 0.00 0.00 0.00 77 1014.0
20260508021116 41 70 0.0 2.0 0.00 0.00 0.00 76 1013.9
20260508020614 41 89 1.0 2.0 0.00 0.00 0.00 76 1013.7
20260508020112 41 89 0.0 2.0 0.00 0.00 0.00 76 1014.0
20260508015609 41 73 0.0 2.0 0.00 0.00 0.00 75 1013.7
20260508015105 42 71 0.0 2.0 0.00 0.00 0.00 74 1013.9
20260508014601 42 87 0.0 1.0 0.00 0.00 0.00 74 1014.0
20260508014058 42 69 0.0 2.0 0.00 0.00 0.00 74 1013.7
20260508013554 43 140 0.0 2.0 0.00 0.00 0.00 74 1013.7
20260508013051 43 76 0.0 2.0 0.00 0.00 0.00 73 1014.1
20260508012549 43 104 1.0 2.0 0.00 0.00 0.00 72 1013.9
20260508012046 44 136 0.0 2.0 0.00 0.00 0.00 71 1013.7
20260508011544 44 70 0.0 2.0 0.00 0.00 0.00 70 1014.0
20260508011041 45 76 0.0 2.0 0.00 0.00 0.00 68 1013.5
20260508010538 45 55 0.0 2.0 0.00 0.00 0.00 66 1013.6
20260508010036 45 100 1.0 2.0 0.00 0.00 0.00 65 1013.6
20260508005532 46 95 1.0 2.0 0.00 0.00 0.00 64 1013.5
20260508005029 46 51 0.0 2.0 0.00 0.00 0.00 63 1013.6
20260508004525 47 77 2.0 3.0 0.00 0.00 0.00 62 1013.7
20260508004022 47 98 0.0 1.0 0.00 0.00 0.00 60 1013.6
20260508003518 47 124 2.0 3.0 0.00 0.00 0.00 61 1013.6
20260508003016 48 35 1.0 2.0 0.00 0.00 0.00 59 1013.4
20260508002511 48 138 3.0 5.0 0.00 0.00 0.00 58 1013.4
20260508002009 48 16 1.0 2.0 0.00 0.00 0.00 58 1013.4
20260508001505 49 104 3.0 3.0 0.00 0.00 0.00 59 1013.5
20260508001001 49 283 1.0 5.0 0.00 0.00 0.00 54 1013.4
20260508000457 50 237 0.0 3.0 0.00 0.00 0.00 56 1013.3
20260507235954 50 224 1.0 3.0 0.00 0.00 0.00 56 1013.3
20260507235451 50 89 0.0 2.0 0.00 0.00 0.00 53 1013.3
20260507234948 50 226 2.0 5.0 0.00 0.00 0.00 54 1013.2
20260507234439 51 198 3.0 5.0 0.00 0.00 0.00 51 1013.1
20260507233936 51 199 0.0 5.0 0.00 0.00 0.00 51 1013.3
20260507233433 51 221 7.0 13.0 0.00 0.00 0.00 50 1013.0
20260507232931 51 331 2.0 6.0 0.00 0.00 0.00 49 1013.2
20260507232427 51 203 2.0 7.0 0.00 0.00 0.00 51 1013.2
20260507231925 51 302 2.0 12.0 0.00 0.00 0.00 48 1013.2
20260507231420 51 196 8.0 9.0 0.00 0.00 0.00 51 1013.1
20260507230918 52 195 1.0 11.0 0.00 0.00 0.00 48 1013.4
20260507230415 52 203 1.0 5.0 0.00 0.00 0.00 48 1013.1
20260507225915 52 194 2.0 7.0 0.00 0.00 0.00 48 1013.2
20260507225411 52 221 5.0 22.0 0.00 0.00 0.00 47 1013.2
20260507224908 52 45 3.0 20.0 0.00 0.00 0.00 49 1013.2
20260507224403 53 228 3.0 10.0 0.00 0.00 0.00 45 1013.3
20260507223900 53 210 2.0 5.0 0.00 0.00 0.00 49 1013.3
20260507223357 54 274 2.0 12.0 0.00 0.00 0.00 46 1013.2
20260507222854 55 248 5.0 7.0 0.00 0.00 0.00 43 1013.1
20260507222350 56 69 2.0 4.0 0.00 0.00 0.00 46 1013.2
20260507221847 55 346 2.0 12.0 0.00 0.00 0.00 47 1013.2
20260507221343 55 359 3.0 11.0 0.00 0.00 0.00 44 1013.0
20260507220839 55 244 7.0 12.0 0.00 0.00 0.00 44 1013.1
20260507220338 55 269 0.0 10.0 0.00 0.00 0.00 47 1013.4
20260507215834 56 6 2.0 5.0 0.00 0.00 0.00 52 1012.9
20260507215331 56 165 1.0 7.0 0.00 0.00 0.00 49 1013.1
20260507214828 55 55 3.0 8.0 0.00 0.00 0.00 49 1013.0
20260507214326 56 245 4.0 11.0 0.00 0.00 0.00 50 1013.1
20260507213820 56 95 7.0 11.0 0.00 0.00 0.00 50 1012.9
20260507213318 55 225 3.0 8.0 0.00 0.00 0.00 52 1012.9
20260507212814 55 226 3.0 11.0 0.00 0.00 0.00 50 1013.0
20260507212310 55 250 2.0 8.0 0.00 0.00 0.00 54 1012.9
20260507211807 54 213 4.0 9.0 0.00 0.00 0.00 54 1012.8
20260507211304 52 234 5.0 7.0 0.00 0.00 0.00 57 1013.0
20260507210801 52 229 4.0 6.0 0.00 0.00 0.00 58 1012.8
20260507210257 52 236 6.0 7.0 0.00 0.00 0.00 56 1012.7
20260507205754 52 272 1.0 4.0 0.00 0.00 0.00 61 1012.9
20260507205251 51 73 2.0 9.0 0.00 0.00 0.00 57 1012.8
20260507204747 51 24 2.0 3.0 0.00 0.00 0.00 60 1012.8
20260507204245 51 207 3.0 8.0 0.00 0.00 0.00 58 1012.8
20260507203742 52 182 3.0 11.0 0.00 0.00 0.00 58 1012.8
20260507203240 52 232 3.0 7.0 0.00 0.00 0.00 56 1012.8
20260507202736 53 88 0.0 6.0 0.00 0.00 0.00 56 1012.8
20260507202232 54 194 3.0 11.0 0.02 0.00 0.00 52 1012.6
20260507201726 54 256 1.0 8.0 0.00 0.00 0.00 52 1012.7
20260507201223 57 139 2.0 10.0 0.00 0.00 0.00 56 1012.5
20260507200714 55 223 5.0 7.0 0.00 0.00 0.00 53 1012.6
20260507200211 56 48 3.0 7.0 0.00 0.00 0.00 52 1012.5
20260507195707 55 272 3.0 3.0 0.00 0.00 0.00 52 1012.5
20260507195204 53 338 1.0 6.0 0.00 0.00 0.00 57 1012.9
20260507194701 53 168 4.0 8.0 0.00 0.00 0.00 52 1012.8
20260507194157 56 239 3.0 7.0 0.00 0.00 0.00 48 1012.8
20260507193654 56 259 2.0 8.0 0.00 0.00 0.00 49 1012.9
20260507193151 56 318 4.0 9.0 0.00 0.00 0.00 49 1013.0
20260507192647 56 178 0.0 7.0 0.00 0.00 0.00 51 1012.9
20260507192144 56 245 3.0 13.0 0.00 0.00 0.00 52 1013.0
20260507191639 57 223 3.0 7.0 0.00 0.00 0.00 46 1013.2
20260507191137 56 216 11.0 11.0 0.00 0.00 0.00 47 1012.9
20260507190634 56 198 1.0 7.0 0.00 0.00 0.00 51 1013.1
20260507190133 57 110 4.0 8.0 0.00 0.00 0.00 44 1013.1
20260507185631 57 258 4.0 5.0 0.00 0.00 0.00 52 1013.1
20260507185127 57 110 0.0 11.0 0.00 0.00 0.00 46 1013.1
20260507184625 57 108 3.0 5.0 0.00 0.00 0.00 51 1013.0
20260507184123 57 170 3.0 6.0 0.00 0.00 0.00 49 1013.1
20260507183618 57 191 3.0 8.0 0.00 0.00 0.00 52 1013.0
20260507183116 56 227 7.0 9.0 0.00 0.00 0.00 44 1013.2
20260507182612 57 180 1.0 6.0 0.00 0.00 0.00 50 1013.2
20260507182108 56 196 5.0 12.0 0.00 0.00 0.00 48 1013.2
20260507181605 57 131 2.0 5.0 0.00 0.00 0.00 56 1013.2
20260507181101 57 136 3.0 7.0 0.00 0.00 0.00 46 1013.0
20260507180559 55 217 4.0 6.0 0.00 0.00 0.00 49 1013.1
20260507180055 55 248 3.0 12.0 0.00 0.00 0.00 54 1013.0
20260507175551 54 113 2.0 8.0 0.00 0.00 0.00 49 1013.0
20260507175048 56 215 5.0 10.0 0.00 0.00 0.00 49 1013.0
20260507174545 56 307 3.0 6.0 0.00 0.00 0.00 48 1013.2
20260507174043 57 74 6.0 11.0 0.00 0.00 0.00 52 1013.3
20260507173540 56 318 1.0 6.0 0.00 0.00 0.00 54 1013.1
20260507173037 56 255 2.0 8.0 0.00 0.00 0.00 52 1013.3
20260507172533 56 217 2.0 7.0 0.00 0.00 0.00 50 1013.0
20260507172030 56 216 2.0 10.0 0.00 0.00 0.00 53 1013.2
20260507171525 56 60 1.0 12.0 0.00 0.00 0.00 48 1013.3
20260507171023 56 258 2.0 9.0 0.00 0.00 0.00 52 1013.3
20260507170519 56 267 1.0 6.0 0.00 0.00 0.00 52 1013.3
20260507170016 55 77 1.0 5.0 0.00 0.00 0.00 50 1013.1
20260507165512 56 162 0.0 6.0 0.00 0.00 0.00 50 1013.2
20260507165009 57 92 3.0 5.0 0.00 0.00 0.00 48 1013.2
20260507164505 55 73 2.0 6.0 0.00 0.00 0.00 54 1013.2
20260507164002 54 218 1.0 7.0 0.00 0.00 0.00 57 1013.1
20260507163459 54 192 2.0 9.0 0.00 0.00 0.00 55 1013.0
20260507162956 55 50 2.0 7.0 0.00 0.00 0.00 60 1013.3
20260507162452 53 197 2.0 9.0 0.00 0.00 0.00 60 1013.2
20260507161949 55 209 2.0 5.0 0.00 0.00 0.00 55 1013.2
20260507161445 56 172 1.0 5.0 0.00 0.00 0.00 50 1013.2
20260507160942 56 93 2.0 5.0 0.00 0.00 0.00 56 1013.2
20260507160438 53 142 2.0 7.0 0.00 0.00 0.00 58 1013.2
20260507155933 54 239 3.0 8.0 0.00 0.00 0.00 54 1013.2
20260507155430 56 340 1.0 5.0 0.00 0.00 0.00 58 1013.2
20260507154927 55 80 5.0 7.0 0.00 0.00 0.00 54 1013.3
20260507154424 53 255 0.0 6.0 0.00 0.00 0.00 56 1013.5
20260507153921 53 68 0.0 7.0 0.00 0.00 0.00 55 1013.2
20260507153418 55 133 2.0 4.0 0.00 0.00 0.00 50 1013.4
20260507152914 55 187 2.0 5.0 0.00 0.00 0.00 50 1013.3
20260507152410 55 88 0.0 4.0 0.00 0.00 0.00 52 1013.2
20260507151906 54 206 2.0 5.0 0.00 0.00 0.00 55 1013.4
20260507151403 53 44 2.0 5.0 0.00 0.00 0.00 56 1013.5
20260507150900 54 221 4.0 5.0 0.00 0.00 0.00 51 1013.2
20260507150356 54 271 2.0 6.0 0.00 0.00 0.00 55 1013.5
20260507145853 54 212 5.0 6.0 0.00 0.00 0.00 53 1013.3
20260507145349 54 167 1.0 3.0 0.00 0.00 0.00 51 1013.4
20260507144846 55 0 0.0 5.0 0.00 0.00 0.00 51 1013.2
20260507144343 53 208 4.0 9.0 0.00 0.00 0.00 54 1013.3
20260507143840 53 180 3.0 5.0 0.00 0.00 0.00 50 1013.3
20260507143337 53 269 3.0 7.0 0.00 0.00 0.00 51 1013.3
20260507142833 53 212 3.0 4.0 0.00 0.00 0.00 57 1013.5
20260507142330 53 222 3.0 4.0 0.00 0.00 0.00 62 1013.4
20260507141827 52 161 1.0 3.0 0.00 0.00 0.00 60 1013.4
20260507141323 52 179 3.0 3.0 0.00 0.00 0.00 60 1013.4
20260507140820 53 113 0.0 6.0 0.00 0.00 0.00 57 1013.5
20260507140317 53 182 3.0 4.0 0.00 0.00 0.00 63 1013.6
20260507135815 52 129 3.0 4.0 0.00 0.00 0.00 68 1013.5
20260507135311 52 187 2.0 6.0 0.00 0.00 0.00 67 1013.9
20260507134809 52 261 3.0 5.0 0.00 0.00 0.00 72 1013.7
20260507134304 51 157 2.0 4.0 0.00 0.00 0.00 70 1013.9
20260507133800 51 186 3.0 4.0 0.00 0.00 0.00 71 1014.0
20260507133256 50 21 2.0 5.0 0.00 0.00 0.00 69 1014.2
20260507132754 50 194 3.0 5.0 0.00 0.00 0.00 71 1014.0
20260507132251 50 231 3.0 4.0 0.00 0.00 0.00 72 1013.9
20260507131748 49 145 0.0 4.0 0.00 0.00 0.00 72 1014.2
20260507131245 50 252 1.0 4.0 0.00 0.00 0.00 73 1014.1
20260507130741 49 172 2.0 4.0 0.00 0.00 0.00 75 1014.0
20260507130239 49 199 0.0 4.0 0.00 0.00 0.00 76 1014.1
20260507125738 48 161 1.0 3.0 0.00 0.00 0.00 76 1014.1
20260507125235 48 247 1.0 2.0 0.00 0.00 0.00 78 1014.0
20260507124732 47 95 0.0 4.0 0.00 0.00 0.00 78 1014.1
20260507124228 47 227 2.0 3.0 0.00 0.00 0.00 78 1014.3
20260507123727 47 189 1.0 3.0 0.00 0.00 0.00 81 1014.1
20260507123224 46 179 2.0 3.0 0.00 0.00 0.00 82 1014.0
20260507122719 46 206 2.0 3.0 0.00 0.00 0.00 83 1014.2
20260507122215 45 150 3.0 5.0 0.00 0.00 0.00 83 1014.1
20260507121711 45 152 4.0 4.0 0.00 0.00 0.00 84 1013.9
20260507121207 44 176 2.0 3.0 0.00 0.00 0.00 86 1014.2
20260507120704 44 177 2.0 3.0 0.00 0.00 0.00 87 1014.0
20260507120201 43 140 2.0 3.0 0.00 0.00 0.00 88 1014.1
20260507115656 43 129 0.0 3.0 0.00 0.00 0.00 89 1014.2
20260507115152 43 227 0.0 1.0 0.00 0.00 0.00 91 1013.9
20260507114648 42 128 2.0 4.0 0.00 0.00 0.00 92 1014.0
20260507114146 42 17 2.0 3.0 0.00 0.00 0.00 92 1013.9
20260507113643 41 189 1.0 3.0 0.00 0.00 0.00 94 1014.0
20260507113140 41 139 0.0 3.0 0.00 0.00 0.00 95 1014.1
20260507112638 41 139 1.0 3.0 0.00 0.00 0.00 97 1014.0
20260507112134 41 130 0.0 1.0 0.00 0.00 0.00 97 1013.7
20260507111631 40 224 0.0 1.0 0.00 0.00 0.00 97 1013.6
20260507111128 40 49 0.0 1.0 0.00 0.00 0.00 98 1013.5
20260507110624 40 66 0.0 2.0 0.00 0.00 0.00 98 1013.6
20260507110121 40 206 0.0 2.0 0.00 0.00 0.00 98 1013.7
20260507105618 40 60 0.0 2.0 0.00 0.00 0.00 98 1013.5
20260507105114 39 113 0.0 1.0 0.00 0.00 0.00 98 1013.5
20260507104612 39 304 0.0 2.0 0.00 0.00 0.00 98 1013.6
20260507104108 39 118 0.0 2.0 0.00 0.00 0.00 98 1013.4
20260507103604 39 89 0.0 2.0 0.00 0.00 0.00 98 1013.5
20260507103101 38 102 0.0 2.0 0.00 0.00 0.00 98 1013.6
20260507102557 38 115 1.0 3.0 0.00 0.00 0.00 98 1013.4
20260507102053 38 65 0.0 2.0 0.00 0.00 0.00 98 1013.4
20260507101549 39 124 0.0 2.0 0.00 0.00 0.00 98 1013.3
20260507101045 39 51 0.0 2.0 0.00 0.00 0.00 98 1013.4
20260507100543 39 135 0.0 3.0 0.00 0.00 0.00 98 1013.2
20260507100041 39 89 0.0 2.0 0.00 0.00 0.00 98 1013.3
20260507095539 39 331 1.0 2.0 0.00 0.00 0.00 98 1013.4
20260507095035 38 43 0.0 3.0 0.00 0.00 0.00 98 1013.3
20260507094531 38 77 0.0 2.0 0.00 0.00 0.00 98 1013.4
20260507094028 38 23 1.0 2.0 0.00 0.00 0.00 97 1013.2
20260507093526 38 43 1.0 2.0 0.00 0.00 0.00 97 1013.5
20260507093024 38 54 0.0 3.0 0.00 0.00 0.00 97 1013.4
20260507092520 37 16 0.0 3.0 0.00 0.00 0.00 97 1013.4
20260507092017 37 291 0.0 2.0 0.00 0.00 0.00 97 1013.4
20260507091514 37 354 0.0 2.0 0.00 0.00 0.00 97 1013.3
20260507091010 37 44 0.0 2.0 0.00 0.00 0.00 97 1013.4
20260507090506 38 92 1.0 2.0 0.00 0.00 0.00 97 1013.5
20260507090004 38 98 0.0 2.0 0.00 0.00 0.00 97 1013.4
20260507085500 38 48 0.0 2.0 0.00 0.00 0.00 97 1013.4
20260507084956 38 12 0.0 2.0 0.00 0.00 0.00 97 1013.5
20260507084453 38 56 0.0 2.0 0.00 0.00 0.00 97 1013.5
20260507083950 38 53 0.0 2.0 0.00 0.00 0.00 97 1013.6
20260507083447 37 62 0.0 2.0 0.00 0.00 0.00 96 1013.9
20260507082943 37 40 1.0 2.0 0.00 0.00 0.00 96 1013.6
20260507082439 37 135 0.0 1.0 0.00 0.00 0.00 96 1013.7
20260507081936 37 44 0.0 2.0 0.00 0.00 0.00 96 1013.6
20260507081432 37 58 0.0 2.0 0.00 0.00 0.00 96 1013.7
20260507080929 37 49 0.0 2.0 0.00 0.00 0.00 96 1013.9
20260507080425 37 66 0.0 1.0 0.00 0.00 0.00 95 1013.7
20260507075920 37 76 0.0 1.0 0.00 0.00 0.00 95 1013.6
20260507075416 37 65 0.0 1.0 0.00 0.00 0.00 95 1013.6
20260507074908 37 143 0.0 1.0 0.00 0.00 0.00 95 1013.5
20260507074405 37 89 0.0 2.0 0.00 0.00 0.00 95 1013.7
20260507073903 37 124 0.0 2.0 0.00 0.00 0.00 95 1013.9
20260507073359 37 63 0.0 2.0 0.00 0.00 0.00 95 1014.0
20260507072856 37 62 0.0 3.0 0.00 0.00 0.00 95 1013.7
20260507072353 37 69 1.0 2.0 0.00 0.00 0.00 95 1013.6
20260507071851 37 124 0.0 2.0 0.00 0.00 0.00 94 1013.7
20260507071348 37 68 0.0 2.0 0.00 0.00 0.00 94 1013.9
20260507070843 37 74 0.0 2.0 0.00 0.00 0.00 94 1014.0
20260507070341 37 68 0.0 2.0 0.00 0.00 0.00 94 1013.9
20260507065838 37 1 0.0 2.0 0.00 0.00 0.00 94 1014.0
20260507065335 37 81 1.0 2.0 0.00 0.00 0.00 94 1014.1
20260507064832 37 72 0.0 3.0 0.00 0.00 0.00 93 1014.2
20260507064330 37 52 0.0 2.0 0.00 0.00 0.00 93 1014.0
20260507063828 37 76 0.0 3.0 0.00 0.00 0.00 93 1014.1
20260507063324 38 100 1.0 2.0 0.00 0.00 0.00 93 1014.3
20260507062821 38 93 2.0 2.0 0.00 0.00 0.00 93 1014.4
20260507062318 38 109 0.0 3.0 0.00 0.00 0.00 92 1014.3
20260507061816 38 58 1.0 2.0 0.00 0.00 0.00 92 1014.2
20260507061314 39 42 0.0 2.0 0.00 0.00 0.00 92 1014.3
20260507060812 39 92 0.0 2.0 0.00 0.00 0.00 92 1014.5
20260507060308 39 74 1.0 3.0 0.00 0.00 0.00 91 1014.4
20260507055805 39 84 0.0 2.0 0.00 0.00 0.00 91 1014.4
20260507055300 39 86 0.0 2.0 0.00 0.00 0.00 91 1014.4
20260507054757 39 62 2.0 3.0 0.00 0.00 0.00 91 1014.5
20260507054253 39 83 2.0 2.0 0.00 0.00 0.00 90 1014.5
20260507053751 40 69 2.0 2.0 0.00 0.00 0.00 90 1014.3
20260507053248 40 101 1.0 3.0 0.00 0.00 0.00 90 1014.5
20260507052747 40 63 0.0 2.0 0.00 0.00 0.00 89 1014.4
20260507052243 41 77 1.0 2.0 0.00 0.00 0.00 89 1014.5
20260507051741 41 113 0.0 2.0 0.00 0.00 0.00 89 1014.7
20260507051238 41 69 1.0 2.0 0.00 0.00 0.00 89 1014.8
20260507050734 41 88 2.0 2.0 0.00 0.00 0.00 89 1014.9
20260507050232 41 89 0.0 3.0 0.00 0.00 0.00 89 1014.7
20260507045728 41 86 1.0 2.0 0.00 0.00 0.00 90 1014.8
20260507045224 42 354 0.0 2.0 0.00 0.00 0.00 90 1014.9
20260507044722 41 89 0.0 1.0 0.00 0.00 0.00 89 1014.8
20260507044218 41 57 1.0 2.0 0.00 0.00 0.00 89 1014.9
20260507043714 42 72 0.0 1.0 0.00 0.00 0.00 89 1014.8
20260507043211 42 88 0.0 1.0 0.00 0.00 0.00 89 1014.8
20260507042708 42 89 1.0 2.0 0.00 0.00 0.00 89 1014.9
20260507042203 42 89 0.0 2.0 0.00 0.00 0.00 89 1014.9
20260507041700 42 64 0.0 2.0 0.00 0.00 0.00 89 1014.9
20260507041156 41 105 1.0 2.0 0.00 0.00 0.00 89 1014.9
20260507040654 42 70 1.0 2.0 0.00 0.00 0.00 89 1015.0
20260507040150 41 45 0.0 2.0 0.00 0.00 0.00 89 1015.3
20260507035646 41 77 0.0 1.0 0.00 0.01 0.01 89 1015.2
20260507035142 41 70 0.0 2.0 0.00 0.01 0.01 89 1015.3
20260507034639 42 85 0.0 2.0 0.00 0.01 0.01 89 1015.2
20260507034137 42 93 1.0 2.0 0.00 0.01 0.01 89 1015.3
20260507033635 42 105 0.0 2.0 0.00 0.01 0.01 89 1015.3
20260507033132 42 87 1.0 2.0 0.00 0.01 0.01 88 1015.3
20260507032629 41 89 0.0 1.0 0.00 0.01 0.01 88 1015.3
20260507032125 41 109 0.0 1.0 0.00 0.01 0.01 88 1015.3
20260507031622 41 86 1.0 2.0 0.00 0.01 0.01 87 1015.4
20260507031119 41 124 0.0 1.0 0.00 0.01 0.01 87 1015.5
20260507030615 42 66 0.0 2.0 0.00 0.01 0.01 87 1015.4
20260507030113 42 44 1.0 2.0 0.00 0.01 0.01 86 1015.1
20260507025610 43 75 0.0 2.0 0.00 0.01 0.01 85 1015.2
20260507025107 43 129 1.0 2.0 0.00 0.01 0.01 84 1015.0